Back to catalog

STARLINK-35669

AliveCommunicationsVLEO
NORAD 66396·PAYLOAD·🇺🇸 United States

Launched Nov 8, 2025 from Cape Canaveral Space Force Station

Loading…

Next Passes (next 24 hours)

TLE

FreshSource: CelesTrak SupGP

Epoch: Sep 14, 2026, 15:22 UTC

1 66396C 25257S   26257.64076389 -.00069655  00000+0 -20582-2 0  2574
2 66396  53.1598  54.9549 0001239  89.4216 316.1359 15.34422686    14

Track STARLINK-35669 in real time with AllMySat

Download on the App Store